Location: Huntington
(40.8831°N, 85.4975°W)
Time: 00:33:54
(UTC-04:00)

Envisat - Pass Details

Date: 15 April 2021
Orbit: 764 x 766 km, 98.1° (Epoch: 17 May)

Event Time Altitude Azimuth Distance (km) Brightness Sun altitude
Rises 06:02:35 0° 31° (NNE) 3,238 7.2 -11.6°
Reaches altitude 10° 06:05:45 10° 51° (NE) 2,306 6.9 -11.0°
Maximum altitude 06:08:58 17° 91° (E) 1,872 6.0 -10.4°
Drops below altitude 10° 06:12:10 10° 131° (SE) 2,295 5.8 -9.9°
Sets 06:15:17 0° 151° (SSE) 3,215 6.3 -9.3°
